When you browse on this site, cookies collect data to enhance your experience and personalize the content and advertising you see.
Visit our Privacy Policy to learn more. By continuing to use the site, you agree to this use of cookies and data.

Hourly Weather Carmarthen

Today, 3 July, Friday

Time Temperature Precipitation Wind Pressure Humidity
00:00 +11°C° 0 mm 4 mps 755 mmHg 96%
01:00 +10°C° 0.9 mm 5 mps 754 mmHg 96%
02:00 +10°C° 0.9 mm 6 mps 754 mmHg 96%
03:00 +10°C° 0.9 mm 7 mps 753 mmHg 96%
04:00 +10°C° 0.5 mm 8 mps 752 mmHg 96%
05:00 +10°C° 0.5 mm 8 mps 752 mmHg 96%
06:00 +11°C° 0.5 mm 9 mps 751 mmHg 96%
07:00 +11°C° 0.5 mm 8 mps 751 mmHg 96%
08:00 +12°C° 0.5 mm 8 mps 751 mmHg 96%
09:00 +13°C° 0.5 mm 8 mps 751 mmHg 96%
10:00 +13°C° 0.2 mm 8 mps 751 mmHg 95%
11:00 +15°C° 0.2 mm 8 mps 751 mmHg 94%
12:00 +16°C° 0.2 mm 8 mps 751 mmHg 93%
13:00 +15°C° 1 mm 7 mps 751 mmHg 94%
14:00 +14°C° 1 mm 6 mps 751 mmHg 95%
15:00 +13°C° 1 mm 5 mps 751 mmHg 96%
16:00 +13°C° 0.3 mm 4 mps 751 mmHg 95%
17:00 +13°C° 0.3 mm 3 mps 752 mmHg 95%
18:00 +14°C° 0.3 mm 2 mps 752 mmHg 94%
19:00 +14°C° 0 mm 2 mps 752 mmHg 94%
20:00 +13°C° 0 mm 1 mps 752 mmHg 95%
21:00 +13°C° 0 mm 1 mps 752 mmHg 95%
22:00 +13°C° 0 mm 1 mps 752 mmHg 96%
23:00 +13°C° 0 mm 2 mps 752 mmHg 96%

Tomorrow, 4 July, Saturday

Time Temperature Precipitation Wind Pressure Humidity
00:00 +13°C° 0 mm 2 mps 752 mmHg 96%
01:00 +13°C° 0.5 mm 2 mps 752 mmHg 97%
02:00 +13°C° 0.5 mm 2 mps 751 mmHg 98%
03:00 +13°C° 0.5 mm 2 mps 751 mmHg 99%
04:00 +14°C° 2.1 mm 2 mps 750 mmHg 99%
05:00 +14°C° 2.1 mm 2 mps 750 mmHg 99%
06:00 +14°C° 2.1 mm 2 mps 750 mmHg 99%
07:00 +14°C° 0.1 mm 3 mps 750 mmHg 98%
08:00 +14°C° 0.1 mm 3 mps 750 mmHg 98%
09:00 +16°C° 0.1 mm 3 mps 750 mmHg 97%
10:00 +15°C° 0.1 mm 4 mps 750 mmHg 96%
11:00 +15°C° 0.1 mm 5 mps 750 mmHg 96%
12:00 +15°C° 0.1 mm 6 mps 750 mmHg 95%
13:00 +16°C° 0.1 mm 5 mps 750 mmHg 94%
14:00 +16°C° 0.1 mm 5 mps 750 mmHg 93%
15:00 +16°C° 0.1 mm 5 mps 750 mmHg 92%
16:00 +16°C° 0.1 mm 5 mps 750 mmHg 92%
17:00 +18°C° 0.1 mm 4 mps 750 mmHg 92%
18:00 +18°C° 0.1 mm 4 mps 749 mmHg 92%
19:00 +16°C° 0.2 mm 5 mps 749 mmHg 92%
20:00 +16°C° 0.2 mm 6 mps 748 mmHg 93%
21:00 +15°C° 0.2 mm 7 mps 748 mmHg 94%
22:00 +15°C° 0.6 mm 8 mps 747 mmHg 95%
23:00 +15°C° 0.6 mm 8 mps 746 mmHg 95%

Day after tomorrow, 5 July, Sunday

Time Temperature Precipitation Wind Pressure Humidity
00:00 +15°C° 0.6 mm 9 mps 745 mmHg 96%
01:00 +13°C° 0.5 mm 9 mps 745 mmHg 95%
02:00 +13°C° 0.5 mm 10 mps 745 mmHg 93%
03:00 +12°C° 0.5 mm 10 mps 745 mmHg 91%
04:00 +11°C° 0 mm 9 mps 747 mmHg 90%
05:00 +10°C° 0 mm 9 mps 748 mmHg 90%
06:00 +9°C° 0 mm 8 mps 749 mmHg 89%
07:00 +10°C° 0 mm 8 mps 749 mmHg 85%
08:00 +11°C° 0 mm 8 mps 749 mmHg 81%
09:00 +12°C° 0 mm 8 mps 750 mmHg 77%
10:00 +12°C° 0.2 mm 8 mps 750 mmHg 77%
11:00 +12°C° 0.2 mm 8 mps 750 mmHg 77%
12:00 +13°C° 0.2 mm 8 mps 750 mmHg 78%
13:00 +13°C° 0.4 mm 8 mps 749 mmHg 78%
14:00 +13°C° 0.4 mm 8 mps 749 mmHg 78%
15:00 +13°C° 0.4 mm 8 mps 749 mmHg 77%
16:00 +13°C° 0.5 mm 8 mps 749 mmHg 81%
17:00 +12°C° 0.5 mm 8 mps 749 mmHg 84%
18:00 +11°C° 0.5 mm 7 mps 748 mmHg 88%
19:00 +11°C° 0.2 mm 8 mps 749 mmHg 89%
20:00 +10°C° 0.2 mm 8 mps 750 mmHg 89%
21:00 +10°C° 0.2 mm 9 mps 750 mmHg 90%
22:00 +8°C° 0 mm 9 mps 751 mmHg 90%
23:00 +8°C° 0 mm 9 mps 752 mmHg 90%

6 July, Monday

Time Temperature Precipitation Wind Pressure Humidity
00:00 +8°C° 0 mm 10 mps 753 mmHg 90%
01:00 +7°C° 0 mm 10 mps 754 mmHg 89%
02:00 +7°C° 0 mm 10 mps 755 mmHg 88%
03:00 +7°C° 0 mm 10 mps 756 mmHg 87%
04:00 +7°C° 0 mm 10 mps 756 mmHg 87%
05:00 +8°C° 0 mm 10 mps 757 mmHg 86%
06:00 +8°C° 0 mm 10 mps 758 mmHg 85%
07:00 +10°C° 0.1 mm 9 mps 759 mmHg 82%
08:00 +11°C° 0.1 mm 9 mps 760 mmHg 79%
09:00 +12°C° 0.1 mm 8 mps 761 mmHg 76%
10:00 +13°C° 0.1 mm 8 mps 761 mmHg 73%
11:00 +13°C° 0.1 mm 8 mps 762 mmHg 69%
12:00 +15°C° 0.1 mm 8 mps 762 mmHg 66%
13:00 +15°C° 0 mm 7 mps 763 mmHg 66%
14:00 +15°C° 0 mm 7 mps 763 mmHg 66%
15:00 +15°C° 0 mm 6 mps 763 mmHg 66%
16:00 +15°C° 0 mm 6 mps 764 mmHg 68%
17:00 +15°C° 0 mm 5 mps 764 mmHg 70%
18:00 +14°C° 0 mm 5 mps 764 mmHg 73%
19:00 +13°C° 0 mm 4 mps 764 mmHg 79%
20:00 +12°C° 0 mm 4 mps 764 mmHg 84%
21:00 +10°C° 0 mm 3 mps 764 mmHg 90%
22:00 +8°C° 0 mm 4 mps 764 mmHg 92%
23:00 +8°C° 0 mm 4 mps 764 mmHg 93%

7 July, Tuesday

Time Temperature Precipitation Wind Pressure Humidity
00:00 +7°C° 0 mm 5 mps 764 mmHg 95%
01:00 +7°C° 0 mm 5 mps 764 mmHg 95%
02:00 +7°C° 0 mm 5 mps 764 mmHg 96%
03:00 +7°C° 0 mm 5 mps 764 mmHg 96%
04:00 +8°C° 0 mm 5 mps 764 mmHg 95%
05:00 +8°C° 0 mm 5 mps 763 mmHg 94%
06:00 +9°C° 0 mm 5 mps 763 mmHg 93%
07:00 +11°C° 0 mm 4 mps 764 mmHg 87%
08:00 +12°C° 0 mm 4 mps 764 mmHg 81%
09:00 +13°C° 0 mm 4 mps 764 mmHg 76%
10:00 +14°C° 0 mm 3 mps 764 mmHg 74%
11:00 +14°C° 0 mm 3 mps 764 mmHg 71%
12:00 +16°C° 0 mm 2 mps 764 mmHg 69%
13:00 +14°C° 0.1 mm 3 mps 764 mmHg 76%
14:00 +13°C° 0.1 mm 3 mps 764 mmHg 82%
15:00 +12°C° 0.1 mm 3 mps 764 mmHg 89%
16:00 +12°C° 0.5 mm 4 mps 763 mmHg 91%
17:00 +12°C° 0.5 mm 4 mps 763 mmHg 94%
18:00 +11°C° 0.5 mm 4 mps 763 mmHg 96%
19:00 +12°C° 1.2 mm 5 mps 762 mmHg 96%
20:00 +11°C° 1.2 mm 6 mps 762 mmHg 97%
21:00 +11°C° 1.2 mm 7 mps 762 mmHg 97%
22:00 +12°C° 0.3 mm 7 mps 762 mmHg 97%
23:00 +14°C° 0.3 mm 6 mps 761 mmHg 97%

8 July, Wednesday

Time Temperature Precipitation Wind Pressure Humidity
00:00 +14°C° 0.3 mm 6 mps 761 mmHg 97%
01:00 +15°C° 0 mm 6 mps 761 mmHg 96%
02:00 +15°C° 0 mm 6 mps 761 mmHg 96%
03:00 +15°C° 0 mm 6 mps 760 mmHg 95%
04:00 +15°C° 0.4 mm 6 mps 760 mmHg 96%
05:00 +15°C° 0.4 mm 7 mps 760 mmHg 96%
06:00 +15°C° 0.4 mm 7 mps 760 mmHg 96%
07:00 +15°C° 0.4 mm 7 mps 760 mmHg 96%
08:00 +16°C° 0.4 mm 7 mps 760 mmHg 96%
09:00 +16°C° 0.4 mm 7 mps 760 mmHg 96%
10:00 +16°C° 0.3 mm 7 mps 760 mmHg 95%
11:00 +16°C° 0.3 mm 7 mps 760 mmHg 94%
12:00 +17°C° 0.3 mm 7 mps 760 mmHg 93%
13:00 +17°C° 0.2 mm 7 mps 759 mmHg 91%
14:00 +18°C° 0.2 mm 7 mps 759 mmHg 88%
15:00 +20°C° 0.2 mm 7 mps 759 mmHg 86%
16:00 +20°C° 0 mm 7 mps 759 mmHg 84%
17:00 +20°C° 0 mm 7 mps 758 mmHg 82%
18:00 +20°C° 0 mm 7 mps 758 mmHg 80%
19:00 +18°C° 0 mm 7 mps 758 mmHg 83%
20:00 +17°C° 0 mm 7 mps 758 mmHg 85%
21:00 +16°C° 0 mm 7 mps 758 mmHg 87%
22:00 +15°C° 0.1 mm 7 mps 758 mmHg 88%
23:00 +14°C° 0.1 mm 7 mps 758 mmHg 88%
Show more